ECHOSTAR 21

Last updated on Sun Apr 12 2026 00:02:54 GMT+0000 (Coordinated Universal Time)

1 42749U 17032A 26101.30881616 .00000066 00000+0 00000+0 0 9992 2 42749 1.7831 351.2700 0002396 25.1739 304.5158 1.00271100 32422
UTC large
Height (km)
Speed (km/s)
/
Latitude / Longitude
Inclination (degrees)
Orbital Period (minutes)
Azimuth
Elevation
Range (km)
Doppler Factor

Next 0 passes for location: London (51.5072 / 0.1276)

Sorry there are no passes over London.
ECHOSTAR 21